Regional Weather Roundup
Issued by NWS

Home | Current Version | Previous Version | Graphics & Text | Print | Product List | Glossary On
Versions: 1 2 3 4 5 6 7 8 9 10 11 12 13 14 15 16 17 18 19 20 21 22 23 24 25 26 27 28 29 30 31 32 33 34 35 36 37 38 39 40 41 42 43 44 45 46 47 48 49 50
000
ASUS45 KBOU 202307
RWRCO

WEATHER ROUNDUP FOR COLORADO
NATIONAL WEATHER SERVICE DENVER/BOULDER CO
400 PM MST MON FEB 20 2017

NOTE: "FAIR" INDICATES FEW OR NO CLOUDS BELOW 12000 FEET WITH NO
SIGNIFICANT WEATHER AND/OR OBSTRUCTIONS TO VISIBILITY.

COZ001>005-013-030-031-210000-
...NORTHWEST COLORADO...

CITY           SKY/WX    TMP DP  RH WIND       PRES   REMARKS
CRAIG          FAIR      48  29  47 SW12G23   30.13F
HAYDEN         FAIR      43  25  49 NE6       30.14F
MEEKER         FAIR      47  30  51 SW7       30.14F
MOUNT WERNER   NOT AVBL
STEAMBOAT SPGS FAIR      42  25  50 CALM      30.16S
WALDEN         NOT AVBL
$$

COZ006>008-011-210000-
...WEST CENTRAL VALLEYS...

CITY           SKY/WX    TMP DP  RH WIND       PRES   REMARKS
GRAND JUNCTION FAIR      52  40  63 NW13      30.15S
MONTROSE       FAIR      55  28  35 VRB5      30.17F
EAGLE          SUNNY     48  25  40 W9        30.20R
RIFLE          FAIR      51  33  50 W5        30.14F
DELTA          FAIR      57  31  36 N5        30.17S
NUCLA          FAIR      52  30  43 SW12      30.23S
$$

COZ017>023-064>068-210000-
...SOUTHWEST COLORADO...

CITY           SKY/WX    TMP DP  RH WIND       PRES   REMARKS
DURANGO        FAIR      51  31  46 SW13      30.22R
CORTEZ         FAIR      51  34  52 VRB5      30.23F
PAGOSA SPRINGS FAIR      44  25  48 CALM      30.26S
TELLURIDE      FAIR      45  14  28 CALM      30.26S
WOLF CREEK PAS FAIR      28  21  74 SW6       30.37R WCI  22
$$

COZ009-010-012-014-032>034-037-058>063-210000-
...CENTRAL COLORADO...

CITY           SKY/WX    TMP DP  RH WIND       PRES   REMARKS
ASPEN          FAIR      44  18  35 CALM      30.18S
BUENA VISTA    FAIR      48  14  25 W22G32    30.16R
COPPER MTN     NOT AVBL
BERTHOUD PASS  FAIR      21  10  63 W24G37    30.24R WCI   4
COTTONWOOD PAS FAIR      41   9  26 SW38G48   30.17F
GUNNISON       FAIR      35  25  66 E13       30.25F WCI  26
KREMMLING      FAIR      50  25  37 SW9G22    30.18F
LEADVILLE      PTSUNNY   34  14  43 N15       30.21R WCI  24
MONARCH PASS   FAIR      25  16  68 W37       30.39R WCI   6
SALIDA         FAIR      51  14  22 W16G29    30.23R
SUNLIGHT       NOT AVBL
WILKERSON PASS FAIR      34   9  35 W15G26    30.22R WCI  24
$$

COZ069>075-210000-
...SAN LUIS VALLEY/SANGRE DE CRISTO MOUNTAINS...

CITY           SKY/WX    TMP DP  RH WIND       PRES   REMARKS
ALAMOSA        FAIR      49  17  28 SE6       30.19R
LA VETA PASS   FAIR      37  14  38 MISG      30.19F
SAGUACHE       FAIR      50  14  23 NW12G18   30.21R
$$

COZ035-036-038>040-210000-
...NORTHERN COLORADO FRONT RANGE...

CITY           SKY/WX    TMP DP  RH WIND       PRES   REMARKS
DENVER INTL AP FAIR      61  13  15 NW15      29.99S
DMNS CITY PARK   N/A     62  10  13 W7G13     29.98S
AURORA         MOSUNNY   61  12  14 NW12G17   30.00S
FRONT RANGE AP MOSUNNY   63  12  14 W8G18     30.00S
ERIE MUNI ARPT FAIR      61  11  14 NW8       29.97F
BOULDER MUN AP FAIR      61  18  18 NW9G23    29.97S
CENTENNIAL     FAIR      61   8  12 NW12      30.00S
BROOMFIELD     MOSUNNY   61  16  17 NW20G25   30.00S
FORT COLLINS   FAIR      62  16  16 SW9       29.96R
LONGMONT       FAIR      64  16  15 NW13      29.98S
$$

COZ041-046-047-076>085-087-088-210000-
...PIKES PEAK/PALMER DIVIDE AND SOUTHERN FOOTHILLS...

CITY           SKY/WX    TMP DP  RH WIND       PRES   REMARKS
COLO. SPRINGS  FAIR      59   3  10 SE18      30.04S
A. F. ACADEMY  FAIR      59   6  12 W8        30.03S
SCHRIEVER AFB  FAIR      57   5  12 S10       30.05S
ELLICOTT       FAIR     N/A N/A N/A S7        30.04R
FALCON         FAIR      59   4  11 S13       30.07R
FORT CARSON    FAIR      60   4  10 SE10      30.03S
LIMON          FAIR      59  13  16 N10       30.03S
MONUMENT HILL  FAIR      54   9  16 N6        30.08R
TRINIDAD       FAIR      62   7  11 NW17      30.06R
$$

COZ042>045-048>051-090-091-210000-
...NORTHEAST COLORADO...

CITY           SKY/WX    TMP DP  RH WIND       PRES   REMARKS
GREELEY ARPT   FAIR      64  15  15 S13       29.96F
AKRON          FAIR      62  14  15 NW15      29.98F
BURLINGTON     FAIR      62  12  14 N15       30.00R
WRAY           NOT AVBL
STERLING       FAIR      64  19  17 NW16      29.93F
HOLYOKE        FAIR      64  12  13 NW16      29.96S
FORT MORGAN    FAIR      63  12  13 S8        29.98S
$$

COZ086-089-092>099-210000-
...SOUTHEAST COLORADO...

CITY           SKY/WX    TMP DP  RH WIND       PRES   REMARKS
PUEBLO         FAIR      66   8  10 SE16      29.98R
LA JUNTA       FAIR      66   8  10 SW3       30.01F
LAMAR          FAIR      67  10  11 N18G24    29.99R
SPRINGFIELD      N/A     62   8  12 N15       30.03R
$$



USA.gov is the U.S. government's official web portal to all federal, state and local government web resources and services.